Vorticity
16 14 17 16 16 16 15 11 9 4 8 9 7 8 8 4 10 10 9 4 3 16 14 2 6 5 10 18 0 6 2 7 8 9 8 9 11 7 8 9 8 14 4 2
21 19 24 24 21 21 22 21 11 4 5 11 4 7 5 9 9 7 11 10 2 9 17 6 2 -2 10 -1 17 7 3 6 9 9 8 7 7 14 8 11 10 5 2 2
20 22 19 20 19 18 18 20 25 26 16 17 17 11 5 2 11 11 12 6 11 -2 12 10 5 4 2 9 -10 11 4 2 8 10 10 7 8 11 12 10 5 3 2 2
20 17 15 13 13 15 19 12 16 17 14 16 15 37 9 5 8 9 10 12 5 7 6 11 4 5 3 4 0 27 3 10 -3 7 12 9 9 11 14 8 4 4 4 3
18 18 20 14 14 15 21 23 24 27 26 18 12 24 19 12 10 13 12 12 6 8 2 13 7 6 9 5 1 26 4 5 4 -6 8 11 7 10 7 7 6 4 5 5
25 16 21 22 15 15 23 22 1 10 21 28 10 14 18 30 13 8 14 15 7 11 3 11 13 11 7 1 -1 8 9 7 0 2 2 9 11 8 9 7 5 5 4 4
27 25 9 13 30 15 15 -6 0 26 26 36 28 29 21 20 28 8 9 22 12 22 12 9 17 6 4 -2 -0 -6 9 12 -2 -12 -6 4 10 12 8 8 7 5 3 4
22 22 17 4 27 19 18 9 37 13 5 13 16 13 60 24 14 22 8 16 10 14 8 5 13 12 4 3 5 7 4 17 7 3 20 -9 8 9 11 6 3 2 6 7
15 24 14 12 30 13 -2 18 8 11 35 3 20 36 20 42 24 15 20 12 11 5 13 7 5 14 9 6 3 6 9 3 13 10 13 8 -6 6 6 8 6 3 3 4
8 18 15 15 12 22 2 16 15 5 16 23 5 21 11 20 44 15 13 13 12 16 14 9 7 6 12 6 1 5 7 11 8 14 2 3 9 -11 7 4 4 6 7 8
8 14 19 15 5 14 22 33 27 21 20 4 10 55 12 35 41 30 16 8 10 18 15 12 7 5 8 8 6 10 5 20 2 14 8 19 20 9 -7 3 4 7 -2 -4
10 13 16 15 6 5 37 0 24 31 5 20 -30 -9 54 7 2 30 34 12 10 9 16 14 9 5 12 6 6 11 4 4 16 16 8 0 16 26 6 9 14 -8 3 -7
10 14 17 16 13 18 3 16 10 1 28 26 37 13 31 -33 28 24 12 20 14 10 19 15 9 6 6 15 3 6 -1 7 28 6 6 7 -4 32 30 26 14 19 2 -2
16 23 17 14 12 11 17 8 23 22 32 3 10 -14 69 5 68 38 11 11 16 4 19 8 19 5 3 13 12 13 7 12 28 6 7 1 7 2 1 20 20 18 7 16
19 27 19 18 15 12 14 12 20 -1 27 6 13 25 6 15 -44 41 28 13 12 13 22 9 12 15 4 21 23 6 0 26 23 7 3 17 -3 1 4 4 5 16 6 5
34 33 31 27 23 22 13 11 11 22 -11 13 18 21 5 2 -4 4 36 7 24 11 23 7 9 13 8 24 -5 12 27 21 25 -0 5 2 9 0 4 4 5 1 2 17
19 22 25 24 26 32 17 13 11 8 25 6 7 24 47 16 -8 10 20 40 10 18 30 1 13 9 12 13 2 -2 1 2 17 21 1 -1 12 7 4 6 5 -0 10 8
20 17 10 23 19 26 15 14 6 18 -5 19 13 29 14 23 17 -27 -32 14 -1 11 24 7 6 13 8 4 6 6 -1 -0 4 5 22 8 4 3 6 -11 -9 23 6 11
32 35 2 13 6 10 7 23 -8 16 -0 2 9 -3 20 21 42 13 12 -5 -15 1 46 15 9 10 9 9 11 3 -2 4 -1 8 8 14 9 9 4 12 0 -11 80 3
38 34 9 10 11 5 26 16 8 5 15 -3 11 5 8 14 13 28 25 3 5 1 8 10 31 21 5 24 1 11 8 3 -3 11 6 10 9 6 4 17 9 11 -23 73
49 28 21 26 -12 28 5 19 3 -12 35 15 -3 16 2 10 6 14 21 41 11 6 -10 15 18 -19 54 19 0 19 7 4 0 3 14 10 13 14 9 1 1 -6 -21 28
34 49 15 30 -8 -3 7 12 0 -5 25 1 24 -8 24 3 15 8 11 6 40 18 10 -1 -0 30 11 -14 -16 64 -2 4 16 15 1 2 1 2 7 19 -6 18 57 12
17 24 26 19 8 -8 28 1 4 11 -0 9 4 14 -18 20 14 10 5 12 13 16 17 17 5 2 -11 29 20 -5 -14 36 45 16 2 11 9 15 -3 -41 -15 54 23 37
16 27 21 23 8 4 6 24 2 9 9 9 9 5 17 -3 13 16 15 5 4 18 16 19 5 22 12 2 -12 12 21 13 -35 -4 26 25 10 -3 23 47 -14 -54 -53 -35
15 23 23 22 26 36 38 32 23 1 10 7 9 4 -2 21 -6 7 7 11 10 7 11 19 39 -0 1 21 17 9 3 -13 23 17 2 8 2 2 6 -18 -36 10 16 29
7 7 10 10 11 23 30 33 41 42 17 3 8 10 4 12 8 6 12 8 5 10 8 13 18 21 35 1 12 22 15 8 5 -11 -0 9 8 7 15 17 15 9 33 2
Height
5652 5645 5640 5636 5634 5634 5635 5637 5642 5653 5647 5644 5651 5659 5667 5672 5677 5685 5693 5698 5706 5715 5723 5731 5737 5744 5750 5756 5761 5764 5768 5771 5774 5777 5781 5786 5790 5794 5799 5802 5806 5811 5818 5822
5636 5629 5625 5620 5618 5617 5618 5619 5630 5627 5626 5622 5628 5637 5643 5657 5666 5671 5680 5686 5694 5702 5712 5721 5728 5735 5742 5750 5754 5758 5762 5766 5769 5772 5775 5779 5783 5788 5793 5797 5801 5807 5813 5819
5622 5617 5611 5607 5605 5603 5605 5605 5609 5605 5604 5605 5609 5616 5631 5646 5652 5660 5668 5675 5680 5692 5702 5711 5718 5727 5734 5741 5748 5752 5756 5761 5763 5767 5769 5772 5776 5781 5787 5793 5798 5804 5809 5814
5610 5605 5599 5595 5593 5592 5597 5588 5589 5592 5585 5588 5596 5593 5612 5628 5639 5643 5655 5663 5671 5681 5690 5698 5706 5717 5726 5735 5739 5743 5748 5753 5757 5760 5764 5768 5774 5781 5787 5792 5795 5799 5803 5808
5600 5595 5590 5584 5581 5578 5581 5575 5574 5573 5570 5572 5584 5577 5597 5609 5623 5636 5646 5655 5661 5671 5679 5687 5697 5706 5716 5723 5731 5735 5740 5745 5750 5755 5758 5762 5767 5774 5779 5785 5788 5792 5797 5802
5590 5585 5579 5574 5570 5567 5565 5563 5563 5560 5558 5551 5568 5566 5571 5591 5613 5624 5631 5641 5649 5659 5668 5676 5686 5696 5704 5710 5718 5725 5731 5738 5743 5748 5752 5756 5761 5767 5773 5780 5784 5787 5792 5797
5591 5580 5571 5566 5564 5557 5556 5553 5551 5549 5544 5540 5554 5550 5558 5578 5591 5605 5611 5623 5634 5643 5652 5662 5671 5682 5692 5699 5710 5717 5723 5729 5735 5741 5747 5751 5755 5761 5765 5772 5779 5781 5786 5792
5580 5574 5566 5559 5553 5551 5548 5546 5540 5537 5537 5538 5540 5539 5552 5565 5570 5577 5590 5601 5613 5623 5634 5646 5658 5670 5681 5689 5698 5707 5714 5720 5726 5734 5737 5744 5749 5754 5760 5764 5771 5775 5779 5784
5570 5570 5560 5552 5549 5546 5543 5537 5534 5532 5533 5532 5533 5536 5536 5541 5551 5561 5575 5588 5600 5610 5619 5632 5644 5655 5668 5677 5686 5696 5705 5711 5718 5724 5729 5733 5741 5747 5753 5760 5764 5769 5771 5776
5565 5559 5558 5550 5546 5540 5536 5532 5530 5527 5528 5527 5528 5531 5529 5531 5536 5550 5564 5578 5589 5601 5610 5621 5633 5645 5655 5665 5677 5686 5695 5702 5710 5715 5720 5726 5731 5740 5744 5749 5754 5761 5764 5769
5556 5553 5552 5543 5539 5535 5532 5528 5525 5523 5523 5522 5524 5523 5523 5525 5533 5544 5556 5568 5579 5589 5600 5611 5623 5634 5644 5654 5664 5674 5683 5691 5696 5703 5709 5715 5721 5727 5734 5740 5745 5750 5754 5758
5548 5541 5537 5537 5532 5529 5524 5522 5519 5518 5519 5518 5518 5519 5516 5522 5529 5536 5547 5557 5568 5578 5588 5600 5613 5623 5634 5644 5653 5663 5672 5680 5687 5694 5697 5702 5709 5715 5722 5730 5735 5740 5744 5749
5535 5529 5521 5525 5524 5522 5521 5517 5515 5512 5513 5512 5513 5515 5516 5519 5517 5529 5539 5549 5559 5569 5580 5592 5602 5613 5623 5633 5643 5652 5660 5668 5675 5681 5685 5693 5699 5706 5712 5717 5720 5725 5731 5736
5520 5517 5511 5509 5510 5510 5511 5509 5508 5508 5509 5507 5506 5510 5512 5519 5513 5521 5534 5542 5551 5561 5571 5582 5592 5602 5611 5620 5631 5640 5649 5656 5663 5669 5675 5682 5689 5696 5701 5705 5709 5714 5716 5722
5505 5503 5497 5497 5498 5500 5500 5501 5501 5503 5502 5504 5503 5505 5513 5517 5511 5513 5526 5536 5542 5553 5564 5575 5583 5591 5601 5610 5620 5628 5636 5643 5651 5657 5665 5672 5678 5684 5689 5693 5697 5701 5705 5711
5490 5486 5483 5485 5486 5489 5492 5491 5494 5495 5497 5497 5499 5501 5505 5512 5511 5512 5516 5528 5537 5546 5557 5567 5575 5583 5592 5601 5610 5618 5626 5633 5640 5646 5653 5658 5666 5672 5678 5681 5685 5690 5694 5699
5477 5474 5474 5476 5478 5480 5484 5485 5486 5489 5490 5493 5495 5495 5497 5501 5508 5509 5506 5520 5532 5539 5547 5558 5567 5574 5582 5591 5598 5607 5616 5623 5630 5636 5642 5648 5656 5662 5665 5670 5674 5677 5681 5686
5469 5467 5467 5470 5472 5476 5479 5478 5481 5482 5483 5485 5488 5488 5492 5494 5499 5502 5503 5508 5524 5527 5539 5548 5556 5564 5572 5580 5587 5595 5604 5612 5618 5624 5631 5637 5643 5649 5654 5658 5663 5668 5671 5675
5457 5458 5462 5464 5467 5469 5470 5471 5474 5475 5476 5478 5481 5483 5484 5487 5490 5496 5501 5505 5507 5515 5523 5538 5547 5554 5561 5569 5577 5585 5593 5600 5607 5612 5618 5625 5632 5636 5642 5648 5653 5661 5654 5662
5448 5448 5455 5456 5463 5463 5464 5465 5467 5466 5469 5470 5473 5476 5479 5481 5484 5486 5492 5497 5503 5507 5518 5516 5534 5542 5551 5559 5566 5573 5580 5589 5595 5602 5606 5611 5618 5625 5631 5637 5643 5648 5643 5643
5445 5443 5447 5452 5458 5456 5457 5458 5459 5460 5461 5463 5466 5469 5472 5475 5478 5481 5483 5489 5494 5501 5504 5510 5519 5529 5539 5546 5553 5562 5572 5579 5585 5591 5596 5602 5608 5614 5620 5625 5628 5632 5636 5636
5446 5444 5446 5449 5452 5452 5451 5453 5454 5454 5453 5457 5460 5464 5466 5469 5472 5474 5477 5481 5484 5488 5493 5497 5504 5513 5523 5524 5540 5548 5558 5566 5573 5579 5586 5591 5597 5603 5607 5610 5616 5619 5620 5622
5450 5448 5448 5451 5449 5447 5446 5450 5450 5450 5451 5451 5454 5456 5460 5463 5465 5467 5470 5473 5477 5479 5482 5488 5496 5505 5511 5519 5528 5536 5542 5552 5560 5566 5571 5578 5584 5590 5595 5594 5600 5605 5605 5610
5455 5452 5450 5451 5448 5446 5446 5446 5447 5448 5448 5448 5447 5450 5451 5455 5458 5460 5462 5465 5468 5472 5475 5477 5483 5492 5500 5508 5516 5524 5530 5536 5544 5552 5557 5565 5572 5578 5583 5585 5587 5587 5591 5603
5463 5457 5453 5451 5450 5447 5445 5443 5443 5442 5442 5442 5442 5441 5442 5444 5448 5453 5455 5458 5460 5463 5468 5472 5476 5480 5487 5493 5501 5509 5516 5524 5531 5538 5545 5551 5558 5564 5570 5572 5575 5578 5584 5592
5466 5462 5457 5453 5449 5446 5444 5440 5437 5436 5434 5433 5433 5435 5435 5435 5437 5441 5445 5449 5452 5454 5458 5464 5468 5473 5477 5481 5487 5495 5502 5509 5517 5524 5531 5537 5543 5549 5555 5559 5563 5569 5573 5578